Location: Launay
(47.2429°N, 1.5727°E)
Time: 21:01:32
(UTC+00:00)

Cosmos 2084 Rocket - Pass Details

Date: 19 May 2025
Orbit: 542 x 578 km, 62.8° (Epoch: 21 June)

Event Time Altitude Azimuth Distance (km) Brightness Sun altitude
Rises 21:53:01 0° 227° (SW) 2,780 6.8 -17.8°
Reaches altitude 10° 21:55:16 10° 230° (SW) 1,882 5.9 -18.0°
Maximum altitude 21:59:29 66° 313° (NW) 628 3.7 -18.3°
Drops below altitude 10° 22:03:42 10° 37° (NE) 1,876 6.4 -18.6°
Sets 22:05:57 0° 40° (NE) 2,770 7.2 -18.8°
